This is the latest recevied weather packets stored in our database for station/object KA1JKB. If no packets are shown the sender has not sent any weather packets the latest 10 day(s).
| Time | Temp. | Humidity | Pressure | Rain* | Wind** | Luminosity | Snow |
|---|---|---|---|---|---|---|---|
| 1788032154 | 26.11° C | 64% | 1019 hPa | 0 mm | - | 301 W/m² | - |
| 1788031851 | 26.11° C | 65% | 1018.8 hPa | 0 mm | - | 350 W/m² | - |
| 1788031550 | 25.56° C | 66% | 1018.9 hPa | 0 mm | - | 320 W/m² | - |
| 1788031249 | 25.56° C | 64% | 1019 hPa | 0 mm | - | 292 W/m² | - |
| 1788030949 | 25.56° C | 67% | 1019 hPa | 0 mm | - | 287 W/m² | - |
| 1788030648 | 25.56° C | 65% | 1019 hPa | 0 mm | - | 281 W/m² | - |
| 1788030338 | 25.56° C | 64% | 1019.1 hPa | 0 mm | - | 280 W/m² | - |
| 1788030034 | 25.56° C | 63% | 1019 hPa | 0 mm | - | 297 W/m² | - |
| 1788029734 | 26.11° C | 64% | 1019.2 hPa | 0 mm | - | 303 W/m² | - |
| 1788029429 | 25.56° C | 63% | 1018.9 hPa | 0 mm | - | 296 W/m² | - |
| 1788029128 | 25.56° C | 64% | 1019.1 hPa | 0 mm | - | 310 W/m² | - |
| 1788028827 | 25.56° C | 66% | 1019.3 hPa | 0 mm | - | 333 W/m² | - |
| 1788028522 | 25.56° C | 66% | 1019.1 hPa | 0 mm | - | 344 W/m² | - |
| 1788028218 | 25.56° C | 64% | 1019.3 hPa | 0 mm | - | 339 W/m² | - |
| 1788027914 | 26.11° C | 62% | 1019 hPa | 0 mm | - | 343 W/m² | - |
| 1788027613 | 26.67° C | 64% | 1019.4 hPa | 0 mm | - | 428 W/m² | - |
| 1788027308 | 26.11° C | 64% | 1019.2 hPa | 0 mm | - | 424 W/m² | - |
| 1788027008 | 26.11° C | 64% | 1019.5 hPa | 0 mm | - | 392 W/m² | - |
| 1788026702 | 26.11° C | 62% | 1019.3 hPa | 0 mm | - | 324 W/m² | - |
| 1788026093 | 26.11° C | 61% | 1019.5 hPa | 0 mm | - | 404 W/m² | - |
| 1788025791 | 27.22° C | 57% | 1019.4 hPa | 0 mm | - | 435 W/m² | - |
| 1788025491 | 27.22° C | 59% | 1019.7 hPa | 0 mm | - | 596 W/m² | - |
| 1788025187 | 26.67° C | 59% | 1019.7 hPa | 0 mm | - | 649 W/m² | - |
| 1788024887 | 26.67° C | 56% | 1019.6 hPa | 0 mm | - | 618 W/m² | - |
| 1788024583 | 26.67° C | 61% | 1019.7 hPa | 0 mm | - | 649 W/m² | - |
* Rain latest hour (hover to see other rain measurements)
** Current wind speed in m/s (hover to see current wind gust speed)